{"data":{"norad_id":59208,"epoch":"2026-05-24T12:42:04.642560Z","epoch_age_seconds":126397,"freshness":"FRESH","line1":"1 59208U 24046H   26144.52922040  .00002117  00000+0  73782-4 0  9992","line2":"2 59208  53.1599 162.1707 0001056  87.6717 272.4406 15.34394702124673","mean_motion":15.34394702,"eccentricity":0.0001056,"inclination_deg":53.1599,"raan_deg":162.1707,"arg_perigee_deg":87.6717,"mean_anomaly_deg":272.4406,"bstar":7.3782e-5,"rev_number":12467,"period_min":93.848082121441,"perigee_km":461.99659263269,"apogee_km":463.44138141715,"semimajor_km":6840.8559870249,"source":"CELESTRAK","updated_at":"2026-05-25T13:38:18.865421Z"}}